Meriden, CT

10:51 AM EDT on October 19, 2017 (GMT -0400)
Meriden Markham Municipal

Weather History for KMMK - October, 2012

Change the Weather History Date:

Monday, October 29, 2012

  Actual Average (KOXC) Record (KOXC)
Temperature  
Mean Temperature 54 °F -  
Max Temperature 57 °F 53 °F 71 °F (2015)
Min Temperature 51 °F 36 °F 24 °F (1997)
Degree Days  
Heating Degree Days 11    
Growing Degree Days 4 (Base 50)    
Moisture  
Dew Point 51 °F    
Average Humidity 90    
Maximum Humidity 94    
Minimum Humidity 86    
Precipitation  
Precipitation 0.03 in - - ()
Sea Level Pressure  
Sea Level Pressure 29.31 in    
Wind  
Wind Speed 13 mph (NNE)    
Max Wind Speed 18 mph    
Max Gust Speed 32 mph    
Visibility 4 miles    
Events Rain    
Averages and records for this station are not official NWS values.
T = Trace of Precipitation, MM = Missing Value Source: NWS Daily Summary

Daily Weather History Graph

Daily Weather History Graph

Search for Another Location

Airport or City:

Trip Planner

Search our weather history database for the weather conditions in past years. The results will help you decide how hot, cold, wet, or windy it might be!

Date:

Astronomy

Oct. 29, 2012 Rise Set
Actual Time 7:20 AM EDT 5:49 PM EDT
Civil Twilight 6:51 AM EDT 6:17 PM EDT
Nautical Twilight 6:18 AM EDT 6:50 PM EDT
Astronomical Twilight 5:46 AM EDT 7:22 PM EDT
Moon 5:39 PM EDT (10/29) 7:08 AM EDT (10/29)
Length of Visible Light 11h 26m
Length of Day
10h 29m
Full, 100% of the Moon is Illuminated
Oct 29
Full
Oct 29
Full
Nov 6
Last Quarter
Nov 13
New
Nov 20
First Quarter

Hourly Weather History & Observations

Time (EDT) Temp. Dew Point Humidity Pressure Visibility Wind Dir Wind Speed Gust Speed Precip Events Conditions
12:53 AM 51.1 °F 46.9 °F 86% 29.69 in 5.0 mi NNE 8.1 mph - 0.00 in Rain Light Rain
1:53 AM 51.1 °F 48.0 °F 89% 29.65 in 9.0 mi NNE 10.4 mph 18.4 mph 0.00 in   Overcast
2:31 AM 51.8 °F 48.2 °F 88% 29.63 in 6.0 mi North 11.5 mph 21.9 mph 0.00 in Rain Light Rain
2:50 AM 51.8 °F 48.2 °F 88% 29.61 in 4.0 mi North 13.8 mph 23.0 mph 0.00 in Rain Light Rain
2:53 AM 51.1 °F 48.0 °F 89% 29.61 in 4.0 mi North 12.7 mph 23.0 mph 0.00 in Rain Light Rain
3:53 AM 51.1 °F 48.9 °F 92% 29.59 in 4.0 mi North 11.5 mph 17.3 mph 0.00 in Rain Light Rain
4:53 AM 52.0 °F 50.0 °F 93% 29.54 in 4.0 mi North 12.7 mph 23.0 mph 0.00 in Rain Light Rain
5:34 AM 53.6 °F 50.0 °F 88% 29.52 in 9.0 mi NNE 16.1 mph 24.2 mph 0.00 in Rain Light Rain
5:53 AM 53.1 °F 50.0 °F 89% 29.51 in 8.0 mi North 15.0 mph 23.0 mph 0.00 in Rain Light Rain
6:53 AM 53.1 °F 50.0 °F 89% 29.48 in 2.5 mi North 13.8 mph 23.0 mph 0.00 in Rain Light Rain
7:00 AM 51.8 °F 50.0 °F 94% 29.48 in 3.0 mi North 16.1 mph 25.3 mph 0.00 in Rain Light Rain
7:09 AM 51.8 °F 50.0 °F 94% 29.47 in 2.5 mi NNE 13.8 mph 25.3 mph 0.01 in Rain Light Rain
7:18 AM 53.6 °F 50.0 °F 88% 29.47 in 3.0 mi North 11.5 mph 21.9 mph 0.01 in Rain Light Rain
7:46 AM 53.6 °F 50.0 °F 88% 29.47 in 2.5 mi North 15.0 mph 24.2 mph 0.01 in Rain Light Rain
7:53 AM 53.1 °F 50.0 °F 89% 29.46 in 3.0 mi North 11.5 mph 24.2 mph 0.01 in Rain Light Rain
8:06 AM 53.6 °F 50.0 °F 88% 29.46 in 2.5 mi North 13.8 mph 26.5 mph 0.00 in Rain Light Rain
8:30 AM 53.6 °F 51.8 °F 94% 29.44 in 4.0 mi North 13.8 mph 25.3 mph 0.00 in Rain Light Rain
8:53 AM 53.1 °F 51.1 °F 93% 29.41 in 4.0 mi North 18.4 mph 28.8 mph 0.00 in Rain Light Rain
9:53 AM 54.0 °F 52.0 °F 93% 29.37 in 4.0 mi NNE 13.8 mph 27.6 mph 0.00 in Rain Light Rain
10:04 AM 53.6 °F 51.8 °F 94% 29.36 in 4.0 mi NNE 18.4 mph 28.8 mph 0.00 in Rain Light Rain
10:23 AM 55.4 °F 51.8 °F 88% 29.34 in 4.0 mi NNE 17.3 mph 32.2 mph 0.00 in Rain Light Rain
10:53 AM 55.9 °F 53.1 °F 90% 29.31 in 6.0 mi North 15.0 mph 24.2 mph 0.00 in   Overcast
11:53 AM 57.9 °F 54.0 °F 87% 29.23 in 5.0 mi NNE 13.8 mph 29.9 mph 0.00 in Rain Light Rain
12:29 PM 57.2 °F 55.4 °F 94% 29.18 in 2.5 mi North - - 0.02 in Rain Rain
12:36 PM 57.2 °F 55.4 °F 94% 29.17 in - North - - 0.02 in   Unknown
12:53 PM - - N/A% 29.15 in - North - - 0.02 in   Unknown
1:53 PM - - N/A% 29.08 in - North - - N/A   Unknown
2:53 PM - - N/A% 28.98 in - North - - N/A   Unknown
3:53 PM - - N/A% 28.91 in - North - - N/A   Unknown
4:53 PM - - N/A% 28.87 in - North - - N/A   Unknown
5:53 PM - - N/A% 28.88 in - North - - N/A   Unknown
6:53 PM - - N/A% 28.92 in - North - - N/A   Unknown
7:53 PM - - N/A% 28.98 in - North - - N/A   Unknown
8:53 PM - - N/A% 29.01 in - North - - N/A   Unknown
9:53 PM - - N/A% 29.05 in - North - - N/A   Unknown
10:53 PM - - N/A% 29.09 in - North - - N/A   Unknown
11:53 PM - - N/A% 29.13 in - North - - N/A   Unknown